Weather History for Shirley, NY

Change the Weather History Date:

Monday, March 4, 2013

  Actual Average (KISP) Record (KISP)
Temperature  
Mean Temperature 36 °F 36 °F  
Max Temperature 42 °F 44 °F 57 °F (1991)
Min Temperature 30 °F 28 °F 5 °F (2009)
Degree Days  
Heating Degree Days 29 29  
Month to date heating degree days 117  
Since 1 July heating degree days 4012  
Cooling Degree Days 0 0  
Month to date cooling degree days 0  
Year to date cooling degree days 0  
Moisture  
Dew Point 19 °F    
Average Humidity 52    
Maximum Humidity 64    
Minimum Humidity 41    
Precipitation  
Precipitation 0.00 in 0.14 in 0.91 in (1993)
Month to date precipitation 0.56  
Year to date precipitation 7.46  
Snow  
Snow 0.00 in 0.30 in T in (2010)
Month to date snowfall 0.9  
Since 1 July snowfall 20.6  
Snow Depth -    
Sea Level Pressure  
Sea Level Pressure 29.77 in    
Wind  
Wind Speed 14 mph (NW)    
Max Wind Speed 22 mph    
Max Gust Speed 31 mph    
Visibility 10 miles    
Events      
T = Trace of Precipitation, MM = Missing Value Source: NWS Daily Summary

Daily Weather History Graph

Daily Weather History Graph

Search for Another Location

Airport:

Trip Planner

Search our weather history database for the weather conditions in past years. The results will help you decide how hot, cold, wet, or windy it might be!

Date:

Astronomy

Mar. 04, 2013 Rise Set
Actual Time 6:20 AM EST 5:46 PM EST
Civil Twilight 5:53 AM EST 6:13 PM EST
Nautical Twilight 5:21 AM EST 6:45 PM EST
Astronomical Twilight 4:49 AM EST 7:17 PM EST
Moon 12:28 AM EST (3/4) 10:23 AM EST (3/4)
Length of Visible Light 12h 20m
Length of Day
11h 25m
Waning Gibbous, 52% of the Moon is Illuminated
Mar 4
Waning Gibbous
Mar 4
Last Quarter
Mar 11
New
Mar 19
First Quarter
Mar 27
Full

Hourly Weather History & Observations

Time (EST) Temp. Windchill Dew Point Humidity Pressure Visibility Wind Dir Wind Speed Gust Speed Precip Events Conditions
12:56 AM 32.0 °F 24.2 °F 19.0 °F 59% 29.73 in 10.0 mi NW 9.2 mph - N/A   Overcast
1:56 AM 30.9 °F 22.8 °F 19.0 °F 61% 29.73 in 10.0 mi NW 9.2 mph - N/A   Overcast
2:56 AM 30.0 °F 21.1 °F 19.0 °F 64% 29.73 in 10.0 mi WNW 10.4 mph - N/A   Overcast
4:56 AM 30.0 °F 21.1 °F 18.0 °F 61% 29.75 in 10.0 mi WNW 10.4 mph - N/A   Overcast
5:56 AM 30.0 °F 21.7 °F 17.1 °F 59% 29.75 in 10.0 mi NW 9.2 mph - N/A   Overcast
7:56 AM 33.1 °F 22.2 °F 18.0 °F 54% 29.78 in 10.0 mi NW 17.3 mph - N/A   Partly Cloudy
8:56 AM 33.1 °F 22.2 °F 19.0 °F 56% 29.77 in 10.0 mi NW 17.3 mph 24.2 mph N/A   Clear
9:56 AM 36.0 °F 27.1 °F 19.9 °F 52% 29.76 in 10.0 mi NW 13.8 mph 25.3 mph N/A   Clear
10:56 AM 39.0 °F 29.6 °F 21.0 °F 49% 29.75 in 10.0 mi NW 18.4 mph 28.8 mph N/A   Partly Cloudy
11:56 AM 39.0 °F 29.9 °F 19.9 °F 46% 29.75 in 10.0 mi West 17.3 mph 27.6 mph N/A   Overcast
12:56 PM 41.0 °F 31.9 °F 21.0 °F 45% 29.72 in 10.0 mi WNW 19.6 mph 29.9 mph N/A   Scattered Clouds
1:56 PM 42.1 °F 33.1 °F 19.9 °F 41% 29.72 in 10.0 mi WNW 20.7 mph 27.6 mph N/A   Clear
2:56 PM 42.1 °F 32.8 °F 19.9 °F 41% 29.71 in 10.0 mi WNW 21.9 mph 29.9 mph N/A   Clear
3:56 PM 42.1 °F 33.1 °F 19.9 °F 41% 29.72 in 10.0 mi WNW 20.7 mph 28.8 mph N/A   Clear
4:56 PM 39.0 °F 28.8 °F 19.9 °F 46% 29.74 in 10.0 mi WNW 21.9 mph 31.1 mph N/A   Clear
5:56 PM 37.0 °F 28.9 °F 19.9 °F 50% 29.77 in 10.0 mi WNW 12.7 mph 21.9 mph N/A   Clear
6:56 PM 36.0 °F 27.5 °F 19.9 °F 52% 29.79 in 10.0 mi NW 12.7 mph - N/A   Clear
7:56 PM 35.1 °F 25.2 °F 19.0 °F 52% 29.81 in 10.0 mi WNW 16.1 mph 26.5 mph N/A   Clear
8:56 PM 34.0 °F 24.2 °F 19.0 °F 54% 29.83 in 10.0 mi NW 15.0 mph 21.9 mph N/A   Clear
9:56 PM 33.1 °F 24.9 °F 19.0 °F 56% 29.84 in 10.0 mi NW 10.4 mph - N/A   Scattered Clouds
10:56 PM 32.0 °F 21.6 °F 19.0 °F 59% 29.84 in 10.0 mi NW 15.0 mph 27.6 mph N/A   Clear
11:56 PM 33.1 °F 21.9 °F 19.0 °F 56% 29.86 in 10.0 mi NW 18.4 mph 24.2 mph N/A   Mostly Cloudy